Location: Gro�bocka
(50.8204°N, 11.9702°E)
Time: 01:55:45
(UTC+00:00)

Cosmos 1980 Rocket - Pass Details

Date: 29 October 2020
Orbit: 831 x 848 km, 71.0° (Epoch: 23 November)

Event Time Altitude Azimuth Distance (km) Brightness Sun altitude
Rises 19:14:31 0° 223° (SW) 3,379 5.6 -32.3°
Reaches altitude 10° 19:17:00 10° 228° (SW) 2,446 4.9 -32.6°
Enters shadow 19:21:20 46° 265° (W) 1,112 3.0 -33.3°
